Location: Cherry Springs State Park
(41.6616°N, 77.8240°W)
Time: 01:25:45
(UTC-04:00)

Amateur Radio Satellites - All Passes

Search period start: 31 March 2015 00:55
Search period end: 01 April 2015 00:55
Location: Cherry Springs State Park, 41.6616°N, 77.8240°W

Satellite Date Start Highest point End Downlink Frequencies (MHz)
Time Altitude Azimuth
BUGSAT 1 31 Mar 00:56:36 01:00:32 52° 286° (WNW) 01:04:27 437.445
PCSat 31 Mar 00:58:04 01:03:11 42° 248° (WSW) 01:08:14 145.827
SWISSCUBE 31 Mar 01:03:41 01:07:40 27° 68° (ENE) 01:11:44 437.505
POPSAT HIP 1 31 Mar 01:05:54 01:09:40 31° 290° (WNW) 01:13:23 437.405
BEESAT 31 Mar 01:06:25 01:10:21 27° 67° (ENE) 01:14:23 436.000
TISAT 1 31 Mar 01:10:34 01:14:37 45° 261° (W) 01:18:40 437.305
NANOSAT C BR1 31 Mar 01:16:05 01:19:34 25° 291° (WNW) 01:22:59 145.865
Oscar 19 31 Mar 01:19:16 01:20:31 11° 86° (E) 01:22:08 437.125/150
POLYITAN 1 31 Mar 01:21:56 01:25:13 22° 292° (WNW) 01:28:26 437.675
ISS 31 Mar 01:27:12 01:29:16 16° 351° (N) 01:31:19 145.825
SPROUT 31 Mar 01:27:21 01:31:00 26° 266° (W) 01:34:36 437.525
ITUPSAT 1 31 Mar 01:53:19 01:58:07 75° 75° (ENE) 02:02:58 437.325
RS-15 31 Mar 01:54:32 02:03:47 28° 25° (NNE) 02:13:34 29.354- 29.394
KKS-1 31 Mar 02:25:30 02:29:21 30° 69° (ENE) 02:33:16 437.445
ITAMSAT 1 31 Mar 02:26:51 02:29:53 16° 89° (E) 02:33:09 435.822/435.867
YUBILEINY 31 Mar 02:29:06 02:37:19 44° 272° (W) 02:45:22 435.215
SO-50 31 Mar 02:34:16 02:37:56 21° 40° (NE) 02:41:42 436.795
SWISSCUBE 31 Mar 02:41:05 02:45:26 33° 264° (W) 02:49:47 437.505
BEESAT 31 Mar 02:43:43 02:48:06 34° 264° (W) 02:52:27 436.000
STARS 31 Mar 02:53:23 02:57:24 38° 71° (ENE) 03:01:29 437.465
Oscar 19 31 Mar 02:55:27 03:00:40 86° 287° (WNW) 03:05:52 437.125/150
ISS 31 Mar 03:04:26 03:06:37 17° 11° (NNE) 03:08:48 145.825
Gurwin Techsat 1B 31 Mar 03:24:03 03:29:09 46° 98° (E) 03:34:16 435.225
ITUPSAT 1 31 Mar 03:34:51 03:36:40 12° 273° (W) 03:38:11 437.325
AIST 1 31 Mar 03:41:38 03:44:47 20° 88° (E) 03:48:03
O/OREOS (USA 219) 31 Mar 03:57:39 04:01:57 42° 107° (ESE) 04:06:19 437.305
KKS-1 31 Mar 04:02:19 04:06:02 25° 266° (W) 04:09:39 437.445
ITAMSAT 1 31 Mar 04:04:47 04:09:55 62° 287° (WNW) 04:15:00 435.822/435.867
RS-15 31 Mar 04:07:15 04:18:43 72° 53° (NE) 04:30:44 29.354- 29.394
VERMONT LUNAR 31 Mar 04:09:44 04:10:07 10° 147° (SSE) 04:10:36 437.305
MOZHAYETS 4 31 Mar 04:12:45 04:16:27 25° 68° (ENE) 04:20:16
SO-50 31 Mar 04:14:03 04:18:59 67° 240° (WSW) 04:23:51 436.795
AUBIESAT-1 31 Mar 04:22:13 04:24:41 16° 58° (ENE) 04:27:25 437.475
HORYU 2 31 Mar 04:29:19 04:33:40 46° 99° (E) 04:38:01 437.375
STARS 31 Mar 04:30:49 04:34:03 19° 268° (W) 04:37:11 437.465
Oscar 19 31 Mar 04:37:23 04:39:20 12° 300° (WNW) 04:40:59 437.125/150
ISS 31 Mar 04:40:24 04:43:35 51° 31° (NNE) 04:46:44 145.825
AO-7 31 Mar 04:42:26 04:50:03 40° 98° (E) 04:57:46 29.400- 29.500
M-CUBED/EXP-1 PRIME 31 Mar 04:46:51 04:50:25 30° 63° (ENE) 04:54:19 437.505
GONETS M04 31 Mar 04:52:26 04:55:38 13° 53° (NE) 04:59:28
JAS-2 31 Mar 04:54:48 05:02:10 47° 95° (E) 05:08:56 435.910
PHONESAT 2.4 31 Mar 05:03:47 05:05:07 12° 147° (SSE) 05:06:32 2401.200-2431.200
Gurwin Techsat 1B 31 Mar 05:04:40 05:08:53 24° 295° (WNW) 05:12:58 435.225
AIST 1 31 Mar 05:18:12 05:22:14 34° 284° (WNW) 05:26:16
O/OREOS (USA 219) 31 Mar 05:38:00 05:41:36 21° 305° (NW) 05:45:07 437.305
VERMONT LUNAR 31 Mar 05:44:09 05:47:16 37° 161° (SSE) 05:50:25 437.305
MOZHAYETS 4 31 Mar 05:49:20 05:53:33 34° 264° (W) 05:57:46
AUBIESAT-1 31 Mar 05:55:01 05:59:01 56° 256° (WSW) 06:03:23 437.475
STRAND 1 31 Mar 05:58:22 06:01:28 17° 62° (ENE) 06:04:46 437.568
CUBESAT XI-V 31 Mar 06:04:30 06:08:30 29° 69° (ENE) 06:12:35 437.345
HORYU 2 31 Mar 06:06:53 06:10:01 18° 295° (WNW) 06:13:01 437.375
PRISM 31 Mar 06:08:07 06:11:28 24° 68° (ENE) 06:14:55 437.425
ISS 31 Mar 06:17:24 06:19:45 18° 227° (SW) 06:22:02 145.825
RS-15 31 Mar 06:20:28 06:30:30 34° 253° (WSW) 06:40:33 29.354- 29.394
M-CUBED/EXP-1 PRIME 31 Mar 06:21:54 06:25:20 25° 262° (W) 06:28:58 437.505
AO-7 31 Mar 06:35:09 06:43:00 48° 297° (WNW) 06:50:47 29.400- 29.500
CUTE-I 31 Mar 06:39:35 06:43:46 24° 93° (E) 06:48:02 437.470
PHONESAT 2.4 31 Mar 06:39:36 06:42:56 41° 162° (SSE) 06:46:16 2401.200-2431.200
JAS-2 31 Mar 06:40:00 06:47:03 38° 295° (WNW) 06:53:29 435.910
Cubesat XI-IV 31 Mar 06:40:18 06:44:32 24° 93° (E) 06:48:52 437.490
GONETS M04 31 Mar 06:46:03 06:54:49 64° 78° (ENE) 07:03:35
CUSAT 1 31 Mar 07:19:04 07:22:46 25° 75° (ENE) 07:27:28 437.405
VERMONT LUNAR 31 Mar 07:21:28 07:24:48 73° 178° (S) 07:28:09 437.305
STRAND 1 31 Mar 07:35:06 07:40:12 66° 258° (WSW) 07:45:21 437.568
CUBESAT XI-V 31 Mar 07:41:45 07:45:54 30° 265° (W) 07:50:01 437.345
PRISM 31 Mar 07:43:08 07:46:51 29° 264° (W) 07:50:33 437.425
PHONESAT 2.4 31 Mar 08:17:35 08:21:06 75° 180° (S) 08:24:39 2401.200-2431.200
CUTE-I 31 Mar 08:19:02 08:24:05 44° 290° (WNW) 08:29:04 437.470
DANDE 31 Mar 08:19:35 08:23:44 72° 80° (E) 08:29:23 436.750
Cubesat XI-IV 31 Mar 08:19:49 08:24:51 43° 290° (WNW) 08:29:50 437.490
HO-68 31 Mar 08:24:18 08:27:07 13° 85° (E) 08:30:27 435.675
AO-7 31 Mar 08:31:43 08:33:57 11° 317° (NW) 08:35:42 29.400- 29.500
GONETS M04 31 Mar 08:43:52 08:51:07 28° 276° (W) 08:58:05
BRITE-PL 31 Mar 08:50:05 08:53:27 23° 94° (E) 08:57:01 437.365/2234.400
VERMONT LUNAR 31 Mar 08:59:07 09:02:23 50° 194° (SSW) 09:05:39 437.305
CUSAT 1 31 Mar 09:01:21 09:05:32 35° 263° (W) 09:10:50 437.405
SEEDS 31 Mar 09:04:32 09:06:53 15° 90° (E) 09:09:24 437.485
DOVE 4 31 Mar 09:06:58 09:09:37 16° 91° (E) 09:12:32 437.250
BEESAT 3 31 Mar 09:13:10 09:14:47 12° 110° (ESE) 09:16:37 437.485
COMPASS 1 31 Mar 09:23:26 09:26:29 19° 92° (E) 09:29:38 437.405
GOMX 1 31 Mar 09:26:27 09:30:27 37° 97° (E) 09:34:42 467.674
Oscar 11 31 Mar 09:36:26 09:37:22 11° 87° (E) 09:38:35 145.826/435.025
TIGRISAT 31 Mar 09:37:15 09:38:14 11° 62° (ENE) 09:39:26 435.000
PHONESAT 2.4 31 Mar 09:55:54 09:59:20 49° 195° (SSW) 10:02:46 2401.200-2431.200
DELFI C3 31 Mar 09:58:08 10:00:14 14° 90° (E) 10:02:31 145.870
CANX-2 31 Mar 09:58:49 10:03:10 80° 101° (ESE) 10:07:29 2200.000
UWE-3 31 Mar 09:59:16 10:01:24 14° 89° (E) 10:03:47 435.000/436.395/437.385
AIST 2 31 Mar 10:01:52 10:03:32 12° 109° (ESE) 10:05:25 435.215
ZACube-1 31 Mar 10:03:53 10:05:28 12° 88° (E) 10:07:20 437.345
DANDE 31 Mar 10:05:43 10:07:03 11° 267° (W) 10:08:08 436.750
ANTELSAT 31 Mar 10:06:01 10:09:20 23° 67° (ENE) 10:12:46 437.575/2403.000
CUBEBUG 2 31 Mar 10:07:33 10:10:50 21° 92° (E) 10:14:19 437.445
CINEMA 3 31 Mar 10:08:11 10:12:20 38° 97° (E) 10:16:40 145.822/145.860
HO-68 31 Mar 10:08:54 10:16:08 79° 105° (ESE) 10:23:21 435.675
CUTE 1.7 + AOD 2 31 Mar 10:12:28 10:16:48 80° 284° (WNW) 10:21:06 437.475
BEESAT 2 31 Mar 10:13:46 10:17:43 47° 118° (ESE) 10:21:44 435.950
BUGSAT 1 31 Mar 10:15:39 10:15:43 10° 63° (ENE) 10:16:02 437.445
POPSAT HIP 1 31 Mar 10:24:11 10:27:02 18° 67° (ENE) 10:30:00 437.405
BRITE-PL 31 Mar 10:28:21 10:32:03 30° 289° (WNW) 10:35:52 437.365/2234.400
AAUSAT CUBESAT 2 31 Mar 10:29:18 10:33:33 87° 288° (WNW) 10:37:47 437.432
NANOSAT C BR1 31 Mar 10:33:28 10:36:44 23° 68° (ENE) 10:40:05 145.865
VERMONT LUNAR 31 Mar 10:37:30 10:39:40 16° 209° (SSW) 10:41:46 437.305
HUMSAT D 31 Mar 10:38:27 10:40:35 14° 89° (E) 10:42:56 437.325/437.525
SEEDS 31 Mar 10:38:53 10:43:02 48° 287° (WNW) 10:47:09 437.485
POLYITAN 1 31 Mar 10:39:18 10:42:48 27° 69° (ENE) 10:46:23 437.675
UKube-1 31 Mar 10:41:46 10:44:58 20° 93° (E) 10:48:15 .
DOVE 4 31 Mar 10:43:29 10:47:41 47° 286° (WNW) 10:52:04 437.250
BEESAT 3 31 Mar 10:48:19 10:52:22 62° 304° (NW) 10:56:30 437.485
DX 1 31 Mar 10:54:15 10:58:03 29° 96° (E) 11:01:52 434.975-435.025
COMPASS 1 31 Mar 10:58:25 11:02:20 36° 289° (WNW) 11:06:12 437.405
UNISAT 6 31 Mar 11:00:52 11:05:08 89° 78° (ENE) 11:09:30 437.425
50 SAT 31 Mar 11:01:11 11:03:32 15° 91° (E) 11:06:03 437.505
GOMX 1 31 Mar 11:05:15 11:08:27 20° 292° (WNW) 11:11:39 467.674
Oscar 11 31 Mar 11:09:45 11:14:07 68° 284° (WNW) 11:18:26 145.826/435.025
TIGRISAT 31 Mar 11:10:11 11:14:26 74° 258° (WSW) 11:18:46 435.000
QB50P1 31 Mar 11:14:32 11:18:42 65° 75° (ENE) 11:22:54 145.935-145.965
DUCHIFAT 1 31 Mar 11:15:12 11:19:21 65° 75° (ENE) 11:23:31 145.980
FUNcube-1 31 Mar 11:24:11 11:28:37 89° 90° (E) 11:33:07 145.935
QB50P2 31 Mar 11:30:03 11:34:17 82° 257° (WSW) 11:38:32 145.880/145.840
DELFI C3 31 Mar 11:31:47 11:35:44 46° 287° (WNW) 11:39:39 145.870
UWE-3 31 Mar 11:33:59 11:38:20 57° 286° (WNW) 11:42:48 435.000/436.395/437.385
PHONESAT 2.4 31 Mar 11:34:59 11:37:14 16° 210° (SSW) 11:39:26 2401.200-2431.200
CUBEBUG 1 31 Mar 11:37:11 11:40:00 17° 91° (E) 11:42:57 437.445
AIST 2 31 Mar 11:37:24 11:41:39 67° 305° (NW) 11:45:56 435.215
CANX-2 31 Mar 11:37:41 11:38:32 10° 297° (WNW) 11:39:09 2200.000
ZACube-1 31 Mar 11:37:56 11:42:19 64° 285° (WNW) 11:46:46 437.345
ANTELSAT 31 Mar 11:42:09 11:46:00 32° 264° (W) 11:49:53 437.575/2403.000
VELOX 1 31 Mar 11:42:15 11:46:27 42° 98° (E) 11:50:38 145.980
CUBEBUG 2 31 Mar 11:43:33 11:47:42 38° 288° (WNW) 11:51:54 437.445
CINEMA 3 31 Mar 11:45:58 11:49:23 21° 292° (WNW) 11:52:48 145.822/145.860
BUGSAT 1 31 Mar 11:46:33 11:50:42 76° 258° (WSW) 11:54:50 437.445
AISAT 31 Mar 11:47:47 11:52:05 51° 100° (E) 11:56:23 437.250
BEESAT 2 31 Mar 11:52:59 11:56:08 20° 317° (NW) 11:59:13 435.950
HO-68 31 Mar 11:57:52 12:03:11 22° 303° (WNW) 12:08:16 435.675
POPSAT HIP 1 31 Mar 11:58:43 12:02:41 39° 262° (W) 12:06:39 437.405
NANOSAT C BR1 31 Mar 12:08:42 12:12:28 30° 264° (W) 12:16:12 145.865
HUMSAT D 31 Mar 12:12:34 12:16:43 51° 286° (WNW) 12:20:53 437.325/437.525
POLYITAN 1 31 Mar 12:15:08 12:18:42 26° 265° (W) 12:22:14 437.675
UKube-1 31 Mar 12:17:17 12:21:15 35° 290° (WNW) 12:25:10 .
ESTCUBE 1 31 Mar 12:24:14 12:28:44 65° 101° (E) 12:33:11 437.505/2401.250
DX 1 31 Mar 12:30:38 12:34:13 25° 292° (WNW) 12:37:42 434.975-435.025
O/OREOS (USA 219) 31 Mar 12:30:42 12:31:31 11° 47° (NE) 12:32:34 437.305
50 SAT 31 Mar 12:34:52 12:38:41 41° 288° (WNW) 12:42:30 437.505
Oscar 19 31 Mar 12:35:27 12:38:47 18° 63° (ENE) 12:42:17 437.125/150
QB50P1 31 Mar 12:54:07 12:55:07 10° 272° (W) 12:55:50 145.935-145.965
DUCHIFAT 1 31 Mar 12:54:42 12:55:42 11° 272° (W) 12:56:27 145.980
TISAT 1 31 Mar 12:55:16 12:58:47 26° 95° (E) 13:02:23 437.305
Gurwin Techsat 1B 31 Mar 13:10:34 13:11:23 10° 58° (ENE) 13:12:31 435.225
CUBEBUG 1 31 Mar 13:12:31 13:16:37 41° 288° (WNW) 13:20:40 437.445
SPROUT 31 Mar 13:13:03 13:17:14 51° 99° (E) 13:21:25 437.525
VELOX 1 31 Mar 13:19:38 13:22:45 19° 294° (WNW) 13:25:43 145.980
AIST 2 31 Mar 13:19:50 13:21:08 11° 325° (NW) 13:22:17 435.215
AISAT 31 Mar 13:25:34 13:28:20 16° 295° (WNW) 13:30:55 437.250
YUBILEINY 31 Mar 13:33:12 13:41:24 47° 89° (E) 13:49:44 435.215
ITAMSAT 1 31 Mar 13:44:39 13:48:54 27° 66° (ENE) 13:53:15 435.822/435.867
ITUPSAT 1 31 Mar 13:54:49 13:58:09 19° 91° (E) 14:01:36 437.325
AO-7 31 Mar 13:55:03 13:58:14 13° 45° (NE) 14:01:52 29.400- 29.500
PCSat 31 Mar 13:57:34 14:01:45 24° 108° (ESE) 14:06:05 145.827
ESTCUBE 1 31 Mar 14:02:49 14:05:08 14° 297° (WNW) 14:07:15 437.505/2401.250
O/OREOS (USA 219) 31 Mar 14:07:14 14:11:48 84° 67° (ENE) 14:16:19 437.305
Oscar 19 31 Mar 14:12:41 14:17:43 58° 259° (W) 14:22:48 437.125/150
TISAT 1 31 Mar 14:31:02 14:34:34 26° 291° (WNW) 14:38:01 437.305
SWISSCUBE 31 Mar 14:40:41 14:45:26 61° 101° (E) 14:50:09 437.505
BEESAT 31 Mar 14:43:14 14:48:00 60° 101° (E) 14:52:43 436.000
Gurwin Techsat 1B 31 Mar 14:45:16 14:50:33 75° 75° (ENE) 14:55:54 435.225
SPROUT 31 Mar 14:50:26 14:52:58 15° 295° (WNW) 14:55:21 437.525
JAS-2 31 Mar 15:07:22 15:12:41 24° 59° (ENE) 15:18:34 435.910
ITAMSAT 1 31 Mar 15:23:21 15:28:15 39° 263° (W) 15:33:08 435.822/435.867
AIST 1 31 Mar 15:24:48 15:29:04 56° 80° (E) 15:33:15
HORYU 2 31 Mar 15:27:53 15:32:04 43° 72° (ENE) 15:36:19 437.375
YUBILEINY 31 Mar 15:30:15 15:38:25 39° 289° (WNW) 15:46:31 435.215
ITUPSAT 1 31 Mar 15:31:44 15:36:20 46° 288° (WNW) 15:40:53 437.325
PCSat 31 Mar 15:39:39 15:44:54 49° 305° (NW) 15:50:10 145.827
AO-7 31 Mar 15:41:25 15:49:24 56° 66° (ENE) 15:57:28 29.400- 29.500
KKS-1 31 Mar 15:52:16 15:56:40 60° 101° (E) 16:01:05 437.445
STARS 31 Mar 16:18:52 16:23:17 75° 102° (ESE) 16:27:42 437.465
SWISSCUBE 31 Mar 16:19:56 16:22:51 16° 297° (WNW) 16:25:35 437.505
BEESAT 31 Mar 16:22:26 16:25:24 16° 297° (WNW) 16:28:13 436.000
Gurwin Techsat 1B 31 Mar 16:28:28 16:31:13 14° 273° (W) 16:33:42 435.225
JAS-2 31 Mar 16:49:55 16:56:55 77° 258° (WSW) 17:04:40 435.910
AIST 1 31 Mar 17:04:38 17:06:15 12° 275° (W) 17:07:37
HORYU 2 31 Mar 17:05:57 17:09:00 17° 269° (W) 17:11:54 437.375
PCSat 31 Mar 17:28:35 17:29:46 10° 328° (NNW) 17:30:44 145.827
KKS-1 31 Mar 17:30:27 17:32:53 14° 296° (WNW) 17:35:08 437.445
BEESAT 3 31 Mar 17:30:56 17:32:31 12° 37° (NE) 17:34:15 437.485
AO-7 31 Mar 17:35:12 17:42:36 34° 265° (W) 17:49:50 29.400- 29.500
AUBIESAT-1 31 Mar 17:37:58 17:39:56 13° 92° (E) 17:42:07 437.475
MOZHAYETS 4 31 Mar 17:43:47 17:48:22 55° 100° (E) 17:52:55
GONETS M04 31 Mar 17:57:04 18:00:04 13° 76° (ENE) 18:03:46
STARS 31 Mar 17:57:39 17:59:13 11° 298° (WNW) 18:00:34 437.465
CUTE-I 31 Mar 18:01:26 18:06:23 40° 69° (ENE) 18:11:24 437.470
Cubesat XI-IV 31 Mar 18:02:18 18:07:17 42° 70° (ENE) 18:12:20 437.490
M-CUBED/EXP-1 PRIME 31 Mar 18:02:53 18:06:55 26° 98° (E) 18:10:55 437.505
AIST 2 31 Mar 18:22:09 18:24:02 13° 37° (NE) 18:26:03 435.215
SO-50 31 Mar 18:28:50 18:33:04 38° 116° (ESE) 18:37:30 436.795
RS-15 31 Mar 18:31:49 18:41:38 43° 110° (ESE) 18:51:47 29.354- 29.394
BEESAT 2 31 Mar 18:33:10 18:36:56 33° 49° (NE) 18:40:40 435.950
JAS-2 31 Mar 18:39:55 18:43:31 13° 280° (W) 18:46:41 435.910
HO-68 31 Mar 18:55:24 18:57:47 12° 50° (NE) 19:00:34 435.675
BEESAT 3 31 Mar 19:07:10 19:11:18 84° 56° (NE) 19:15:22 437.485
AUBIESAT-1 31 Mar 19:10:30 19:15:20 74° 291° (WNW) 19:20:01 437.475
MOZHAYETS 4 31 Mar 19:22:15 19:25:12 16° 295° (WNW) 19:27:57
PRISM 31 Mar 19:25:10 19:29:02 36° 98° (E) 19:32:51 437.425
M-CUBED/EXP-1 PRIME 31 Mar 19:37:22 19:41:52 37° 295° (WNW) 19:46:12 437.505
CUBESAT XI-V 31 Mar 19:37:36 19:42:14 68° 101° (E) 19:46:49 437.345
CUTE-I 31 Mar 19:42:07 19:46:37 26° 266° (W) 19:51:02 437.470
Cubesat XI-IV 31 Mar 19:43:06 19:47:34 26° 267° (W) 19:51:57 437.490
STRAND 1 31 Mar 19:45:34 19:50:23 41° 98° (E) 19:55:12 437.568
GONETS M04 31 Mar 19:46:53 19:55:30 72° 94° (E) 20:04:14
SEEDS 31 Mar 19:58:24 19:59:45 12° 64° (ENE) 20:01:19 437.485
AIST 2 31 Mar 19:59:05 20:03:22 85° 55° (NE) 20:07:34 435.215
BRITE-PL 31 Mar 20:01:27 20:05:21 29° 71° (ENE) 20:09:08 437.365/2234.400
SO-50 31 Mar 20:09:37 20:13:44 29° 315° (NW) 20:17:55 436.795
BEESAT 2 31 Mar 20:11:33 20:14:57 24° 246° (WSW) 20:18:14 435.950
DOVE 4 31 Mar 20:13:50 20:16:25 16° 67° (ENE) 20:19:05 437.250
COMPASS 1 31 Mar 20:16:02 20:18:19 15° 65° (ENE) 20:20:46 437.405
CUSAT 1 31 Mar 20:31:50 20:33:13 13° 94° (E) 20:34:39 437.405
GOMX 1 31 Mar 20:35:15 20:39:24 41° 73° (ENE) 20:43:24 467.674
HO-68 31 Mar 20:37:14 20:44:13 60° 69° (ENE) 20:51:18 435.675
RS-15 31 Mar 20:43:02 20:53:45 58° 313° (NW) 21:04:42 29.354- 29.394
AUBIESAT-1 31 Mar 20:48:18 20:49:22 11° 306° (NW) 20:50:10 437.475
CANX-2 31 Mar 20:51:53 20:56:02 57° 74° (ENE) 21:00:15 2200.000
UWE-3 31 Mar 20:58:31 20:59:35 11° 63° (ENE) 21:00:53 435.000/436.395/437.385
PRISM 31 Mar 21:01:14 21:04:18 20° 293° (WNW) 21:07:14 437.425
CUTE 1.7 + AOD 2 31 Mar 21:05:21 21:09:34 74° 76° (ENE) 21:13:51 437.475
CUBEBUG 2 31 Mar 21:07:11 21:09:48 17° 66° (ENE) 21:12:33 437.445
CINEMA 3 31 Mar 21:10:51 21:14:35 33° 71° (ENE) 21:18:21 145.822/145.860
CUBESAT XI-V 31 Mar 21:16:50 21:19:10 13° 297° (WNW) 21:21:18 437.345
AAUSAT CUBESAT 2 31 Mar 21:20:14 21:24:21 64° 75° (ENE) 21:28:32 437.432
ISS 31 Mar 21:21:09 21:22:40 13° 131° (SE) 21:24:17 145.825
STRAND 1 31 Mar 21:25:16 21:29:24 25° 294° (WNW) 21:33:25 437.568
SEEDS 31 Mar 21:30:52 21:35:04 68° 259° (W) 21:39:18 437.485
HUMSAT D 31 Mar 21:32:41 21:33:21 10° 63° (ENE) 21:34:14 437.325/437.525
DANDE 31 Mar 21:35:19 21:38:15 76° 280° (W) 21:40:53 436.750
UKube-1 31 Mar 21:37:21 21:40:23 19° 66° (ENE) 21:43:33 .
BRITE-PL 31 Mar 21:40:01 21:43:56 26° 265° (W) 21:47:34 437.365/2234.400
GONETS M04 31 Mar 21:46:17 21:53:19 25° 296° (WNW) 22:00:08
COMPASS 1 31 Mar 21:49:34 21:53:38 50° 261° (W) 21:57:46 437.405
DOVE 4 31 Mar 21:49:50 21:53:57 43° 262° (W) 21:57:56 437.250
DX 1 31 Mar 21:50:16 21:53:56 28° 69° (ENE) 21:57:41 434.975-435.025
Oscar 11 31 Mar 22:04:28 22:08:46 86° 252° (WSW) 22:13:09 145.826/435.025
GOMX 1 31 Mar 22:14:49 22:17:47 17° 268° (W) 22:20:30 467.674
CUSAT 1 31 Mar 22:14:50 22:15:58 12° 289° (WNW) 22:16:59 437.405
DELFI C3 31 Mar 22:19:19 22:23:23 75° 257° (WSW) 22:27:30 145.870
FUNcube-1 31 Mar 22:20:21 22:24:28 71° 76° (ENE) 22:28:38 145.935
HO-68 31 Mar 22:26:33 22:32:27 26° 268° (W) 22:38:12 435.675
CANX-2 31 Mar 22:30:34 22:32:26 12° 272° (W) 22:34:04 2200.000
UWE-3 31 Mar 22:31:31 22:35:38 67° 259° (W) 22:39:48 435.000/436.395/437.385
CUBEBUG 1 31 Mar 22:34:10 22:36:51 17° 65° (ENE) 22:39:40 437.445
ZACube-1 31 Mar 22:34:14 22:38:22 79° 257° (WSW) 22:42:34 437.345
VELOX 1 31 Mar 22:40:09 22:44:17 40° 71° (ENE) 22:48:27 145.980
CUBEBUG 2 31 Mar 22:42:19 22:46:14 41° 262° (W) 22:50:11 437.445
PCSat 31 Mar 22:44:25 22:48:42 24° 45° (NE) 22:53:04 145.827
AISAT 31 Mar 22:45:51 22:50:06 47° 72° (ENE) 22:54:23 437.250
CINEMA 3 31 Mar 22:48:51 22:51:57 19° 268° (W) 22:54:55 145.822/145.860
UNISAT 6 31 Mar 22:53:17 22:56:31 19° 92° (E) 22:59:57 437.425
ISS 31 Mar 22:55:27 22:58:43 73° 326° (NW) 23:01:58 145.825
AAUSAT CUBESAT 2 31 Mar 22:59:28 23:00:31 11° 273° (W) 23:01:18 437.432
RS-15 31 Mar 23:00:42 23:09:19 24° 343° (NNW) 23:18:00 29.354- 29.394
TIGRISAT 31 Mar 23:02:01 23:05:37 23° 93° (E) 23:09:22 435.000
QB50P1 31 Mar 23:02:35 23:03:02 10° 88° (E) 23:03:46 145.935-145.965
HUMSAT D 31 Mar 23:04:31 23:08:36 71° 258° (WSW) 23:12:44 437.325/437.525
UKube-1 31 Mar 23:12:13 23:16:18 39° 262° (W) 23:20:23 .
QB50P2 31 Mar 23:16:30 23:19:03 16° 91° (E) 23:21:47 145.880/145.840
50 SAT 31 Mar 23:20:44 23:24:38 69° 259° (WSW) 23:28:34 437.505
ESTCUBE 1 31 Mar 23:23:55 23:28:24 61° 74° (ENE) 23:32:54 437.505/2401.250
DX 1 31 Mar 23:26:25 23:30:10 27° 265° (W) 23:33:52 434.975-435.025
BUGSAT 1 31 Mar 23:30:05 23:32:17 15° 91° (E) 23:34:39 437.445
ANTELSAT 31 Mar 23:33:05 23:37:34 50° 99° (E) 23:42:08 437.575/2403.000
YUBILEINY 31 Mar 23:43:30 23:50:02 23° 62° (ENE) 23:56:52 435.215
POPSAT HIP 1 31 Mar 23:43:45 23:47:30 31° 96° (E) 23:51:18 437.405
TISAT 1 31 Mar 23:48:15 23:51:25 22° 68° (ENE) 23:54:41 437.305
NANOSAT C BR1 31 Mar 23:53:05 23:57:03 39° 98° (E) 00:01:02 145.865
POLYITAN 1 31 Mar 23:59:39 00:03:46 48° 99° (E) 00:07:55 437.675
SPROUT 01 Apr 00:07:29 00:11:29 40° 72° (ENE) 00:15:31 437.525
CUBEBUG 1 01 Apr 00:08:36 00:12:53 49° 261° (W) 00:17:09 437.445
VELOX 1 01 Apr 00:17:49 00:21:03 19° 268° (W) 00:24:10 145.980
AISAT 01 Apr 00:24:12 00:27:02 16° 269° (W) 00:29:41 437.250
PCSat 01 Apr 00:27:12 00:32:33 59° 245° (WSW) 00:37:51 145.827
UNISAT 6 01 Apr 00:29:09 00:33:32 43° 288° (WNW) 00:37:57 437.425
ISS 01 Apr 00:33:09 00:35:33 19° 345° (NNW) 00:37:56 145.825
QB50P1 01 Apr 00:35:15 00:39:27 67° 285° (WNW) 00:43:39 145.935-145.965
DUCHIFAT 1 01 Apr 00:35:31 00:39:43 68° 285° (WNW) 00:43:54 145.980
TIGRISAT 01 Apr 00:38:16 00:42:28 36° 289° (WNW) 00:46:42 435.000
